Flag for Australia Weather past 2 weeks in Albury, New South Wales, Australia

Now
45 °F

Partly cloudy.


Feels Like: 43 °F
Forecast: 40 / 59 °F
Wind: 3 mph from South

Location: Albury Airport

Current Time: Jul 29, 2014 at 1:23:59 AM

Latest Report: Jul 29, 2014 at 1:00 AM


Visibility: 2 mi

Pressure: 30.04 "Hg

Humidity: 93%

Dew point: 43 °F

Location of AlburyLocation

Historic Weather in Albury — Graph

°F

Albury temperature yesterday

Maximum temperature yesterday: 57 °F (at 2:00 PM)
Minimum temperature yesterday: 37 °F (at 6:00 AM)
Average temperature yesterday: 47 °F

Past Weeks' High & Low Weather Summary

 TemperatureHumidityPressure
High63 °F (Jul 25, 1:00 PM)100% (Jul 14, 12:00 AM)30.51 "Hg (Jul 14, 12:00 AM)
Low28 °F (Jul 19, 7:00 AM)51% (Jul 18, 1:00 PM)29.86 "Hg (Jul 17, 4:00 AM)
Average45 °F88%30.17 "Hg
* Reported Midnight between Jul 13 and Jul 14 — Midnight between Jul 28 and Jul 29, Albury, Weather by CustomWeather, © 2014

Note: Actual official high and low records may vary slightly from our data, if they occured in-between our weather recording intervals... More about our weather records

Advertising

Albury weather history for previous 24 hours

 ConditionsComfort  
Time TempWeatherWind HumidityBarometerVisibility
12:00 AM
Jul 29
46 °FPartly cloudy.5 mph93%30.04 "HgN/A
11:00 PM
Jul 28
48 °FPartly cloudy.5 mph87%30.04 "HgN/A
10:00 PM50 °FMostly cloudy.3 mph88%30.04 "HgN/A
9:00 PM50 °FPartly cloudy.5 mph88%30.04 "HgN/A
8:00 PM50 °FPartly cloudy.2 mph88%30.07 "HgN/A
7:00 PM52 °FOvercast.6 mph88%30.04 "HgN/A
6:00 PM54 °FMostly cloudy.5 mph82%30.07 "HgN/A
5:00 PM55 °FMostly cloudy.5 mph77%30.07 "HgN/A
4:00 PM57 °FPartly sunny.8 mph72%30.04 "HgN/A
3:00 PM57 °FScattered clouds.10 mph67%30.07 "HgN/A
2:00 PM57 °FSunny.8 mph67%30.07 "HgN/A
1:00 PM55 °FScattered clouds.7 mph67%30.09 "HgN/A
12:00 PM55 °FScattered clouds.7 mph72%30.12 "HgN/A
11:00 AM54 °FSunny.3 mph94%30.15 "HgN/A
10:00 AM46 °FScattered clouds.3 mph100%30.15 "Hg3 mi
9:00 AM41 °FLow clouds.No wind100%30.18 "Hg0 mi
8:00 AM37 °FLow clouds.No wind100%30.18 "Hg0 mi
7:00 AM39 °FLow clouds.No wind100%30.18 "Hg0 mi
6:00 AM37 °FLow clouds.No wind100%30.15 "Hg0 mi
5:00 AM39 °FLow clouds.1 mph100%30.18 "Hg0 mi
4:00 AM39 °FLow clouds.No wind100%30.18 "Hg0 mi
3:00 AM39 °FLow clouds.No wind100%30.18 "Hg1 mi
2:00 AM41 °FMostly cloudy.No wind100%30.18 "Hg2 mi
1:00 AM41 °FOvercast.No wind100%30.21 "Hg1 mi
Weather by CustomWeather, © 2014

See weather overviewHow to use our weather pages